Flag for United Arab Emirates Weather past 2 weeks in Abu Dhabi, Abu Dhabi, United Arab Emirates

Now
99 °F

Clear.


Feels Like: 103 °F
Forecast: 89 / 105 °F
Wind: 5 mph from Northeast

Location: Abu Dhabi Bateen Airport

Current Time: Jul 31, 2014 at 10:19:11 AM

Latest Report: Jul 31, 2014 at 10:00 AM


Visibility: 4 mi

Pressure: 29.47 "Hg

Humidity: 35%

Dew point: 66 °F

Location of Abu DhabiLocation

Historic Weather in Abu Dhabi — Graph

°F

Abu Dhabi temperature yesterday

Maximum temperature yesterday: 108 °F (at 2:00 PM)
Minimum temperature yesterday: 86 °F (at 4:00 AM)
Average temperature yesterday: 95 °F

Past Weeks' High & Low Weather Summary

 TemperatureHumidityPressure
High113 °F (Jul 26, 2:00 PM)89% (Jul 19, 3:00 AM)29.56 "Hg (Jul 19, 3:00 AM)
Low86 °F (Jul 17, 5:00 AM)13% (Jul 26, 2:00 PM)29.33 "Hg (Jul 17, 5:00 PM)
Average96 °F56%29.43 "Hg
* Reported Jul 16 9:00 AM — Jul 31 9:00 AM, Abu Dhabi, Weather by CustomWeather, © 2014

Note: Actual official high and low records may vary slightly from our data, if they occured in-between our weather recording intervals... More about our weather records

Advertising

Abu Dhabi weather history for previous 24 hours

 ConditionsComfort  
Time TempWeatherWind HumidityBarometerVisibility
9:00 AM
Jul 31
97 °FClear.2 mph34%29.47 "Hg4 mi
8:00 AM93 °FClear.2 mph49%29.47 "Hg4 mi
7:00 AM88 °FClear.1 mph66%29.45 "Hg5 mi
6:00 AM86 °FClear.1 mph66%29.45 "Hg5 mi
5:00 AM88 °FClear.2 mph66%29.45 "Hg5 mi
4:00 AM88 °FClear.1 mph66%29.45 "Hg6 mi
3:00 AM90 °FClear.1 mph52%29.42 "Hg6 mi
2:00 AM91 °FClear.2 mph49%29.42 "Hg6 mi
1:00 AM91 °FClear.2 mph52%29.45 "Hg6 mi
12:00 AM93 °FClear.3 mph49%29.45 "Hg6 mi
11:00 PM
Jul 30
93 °FClear.2 mph49%29.45 "Hg6 mi
10:00 PM93 °FClear.2 mph56%29.45 "Hg6 mi
9:00 PM95 °FClear.3 mph53%29.45 "Hg6 mi
8:00 PM95 °FClear.5 mph50%29.42 "Hg6 mi
7:00 PM97 °FSunny.6 mph44%29.42 "Hg10 mi
6:00 PM99 °FSunny.9 mph35%29.42 "Hg10 mi
5:00 PM104 °FClear.12 mph20%29.42 "Hg5 mi
4:00 PM106 °FClear.13 mph26%29.42 "Hg5 mi
3:00 PM108 °FClear.10 mph15%29.42 "Hg6 mi
2:00 PM108 °FPassing clouds.13 mph14%29.45 "HgN/A
1:00 PM106 °FPassing clouds.10 mph15%29.45 "HgN/A
12:00 PM104 °FSunny.5 mph24%29.47 "Hg10 mi
11:00 AM102 °FSunny.2 mph26%29.47 "Hg10 mi
10:00 AM97 °FPassing clouds.3 mph37%29.47 "HgN/A
Weather by CustomWeather, © 2014

See weather overviewHow to use our weather pages